Location: Huntsville
(41.2590°N, 111.7678°W)
Time: 03:58:45
(UTC+00:00)

Tiros 1 despin weight - All Passes

Search period start: 06 October 2022 00:00
Search period end: 16 October 2022 00:00
Orbit: 590 x 638 km, 48.2° (Epoch: 04 October)

Date Brightness Start Highest point End Pass type
(mag) Time Alt. Az. Time Alt. Az. Time Alt. Az.
06 Oct - 01:30:50 10° WNW 01:35:00 35° N 01:39:13 10° ENE visible
06 Oct - 03:12:25 10° WNW 03:17:00 69° NNE 03:21:37 10° ESE visible
06 Oct - 04:54:16 10° WNW 04:58:15 29° SW 05:02:15 10° SSE visible
06 Oct - 20:41:50 10° S 20:45:22 23° SE 20:48:55 10° E daylight
06 Oct - 22:22:02 10° WSW 22:26:28 77° NNW 22:31:00 10° ENE daylight
07 Oct - 00:04:16 10° WNW 00:08:24 35° N 00:12:37 10° ENE daylight
07 Oct - 01:46:19 10° WNW 01:50:37 40° NNE 01:54:58 10° E visible
07 Oct - 03:27:47 10° WNW 03:32:21 75° SSW 03:36:59 10° SE visible
07 Oct - 05:10:34 10° W 05:13:17 16° SW 05:16:02 10° S visible
07 Oct - 20:56:18 10° SSW 21:00:28 43° SE 21:04:43 10° ENE daylight
07 Oct - 22:37:34 10° W 22:41:55 51° NNW 22:46:20 10° ENE daylight
08 Oct - 00:19:56 10° WNW 00:24:02 33° N 00:28:11 10° ENE daylight
08 Oct - 02:01:41 10° WNW 02:06:08 53° NNE 02:10:39 10° E visible
08 Oct - 03:43:16 10° WNW 03:47:36 42° SW 03:51:58 10° SSE visible
08 Oct - 19:32:14 10° SSE 19:34:49 15° SE 19:37:24 10° E daylight
08 Oct - 21:11:18 10° SW 21:15:42 77° SSE 21:20:11 10° ENE daylight
08 Oct - 22:53:15 10° W 22:57:27 39° NNW 23:01:43 10° ENE daylight
09 Oct - 00:35:29 10° WNW 00:39:39 36° N 00:43:53 10° ENE daylight
09 Oct - 02:17:01 10° WNW 02:21:34 80° NNE 02:26:11 10° ESE visible
09 Oct - 03:59:03 10° W 04:02:42 23° SW 04:06:22 10° S visible
09 Oct - 19:46:02 10° SSW 19:49:49 29° SE 19:53:40 10° ENE daylight
09 Oct - 21:26:39 10° WSW 21:31:03 66° NNW 21:35:31 10° ENE daylight
09 Oct - 23:08:57 10° WNW 23:13:03 34° N 23:17:11 10° ENE daylight
10 Oct - 00:50:54 10° WNW 00:55:13 43° NNE 00:59:36 10° E daylight
10 Oct - 02:32:22 10° WNW 02:36:52 62° SSW 02:41:25 10° SE visible
10 Oct - 04:15:52 10° WSW 04:17:41 12° SW 04:19:30 10° SSW visible
10 Oct - 20:00:41 10° SW 20:04:57 53° SE 20:09:18 10° ENE daylight
10 Oct - 21:42:14 10° W 21:46:30 46° NNW 21:50:50 10° ENE daylight
10 Oct - 23:24:34 10° WNW 23:28:39 33° N 23:32:47 10° ENE daylight
11 Oct - 01:06:13 10° WNW 01:10:41 61° NNE 01:15:13 10° ESE daylight
11 Oct - 02:47:54 10° WNW 02:52:02 34° SW 02:56:13 10° SSE visible
11 Oct - 18:36:05 10° S 18:39:12 19° SE 18:42:20 10° E daylight
11 Oct - 20:15:48 10° WSW 20:20:12 89° NNW 20:24:41 10° ENE daylight
11 Oct - 21:57:55 10° WNW 22:02:02 36° N 22:06:14 10° ENE daylight
11 Oct - 23:40:03 10° WNW 23:44:14 37° N 23:48:28 10° E daylight
12 Oct - 01:21:31 10° WNW 01:26:03 87° SSW 01:30:38 10° ESE visible
12 Oct - 03:03:53 10° W 03:07:05 19° SW 03:10:18 10° S visible
12 Oct - 18:50:14 10° SSW 18:54:14 35° SE 18:58:17 10° ENE daylight
12 Oct - 20:31:13 10° WSW 20:35:34 57° NNW 20:39:59 10° ENE daylight
12 Oct - 22:13:35 10° WNW 22:17:38 33° N 22:21:43 10° ENE daylight
12 Oct - 23:55:24 10° WNW 23:59:45 48° NNE 00:04:09 10° E daylight
13 Oct - 01:36:54 10° WNW 01:41:17 51° SW 01:45:44 10° SE visible
13 Oct - 17:26:53 10° SSE 17:28:36 12° SE 17:30:20 10° ESE daylight
13 Oct - 19:05:03 10° SW 19:09:23 65° SSE 19:13:47 10° ENE daylight
13 Oct - 20:46:50 10° W 20:51:02 42° NNW 20:55:17 10° ENE daylight
13 Oct - 22:29:07 10° WNW 22:33:13 34° N 22:37:20 10° ENE daylight
14 Oct - 00:10:41 10° WNW 00:15:10 70° NNE 00:19:43 10° ESE daylight
14 Oct - 01:52:32 10° W 01:56:24 28° SW 02:00:18 10° SSE visible
14 Oct - 17:40:02 10° S 17:43:32 24° SE 17:47:04 10° E daylight
14 Oct - 19:20:16 10° WSW 19:24:40 76° NNW 19:29:06 10° ENE daylight
14 Oct - 21:02:30 10° WNW 21:06:34 35° N 21:10:41 10° ENE daylight
14 Oct - 22:44:32 10° WNW 22:48:45 40° NNE 22:53:01 10° E daylight
15 Oct - 00:25:59 10° WNW 00:30:28 74° SSW 00:35:01 10° SE daylight
15 Oct - 02:08:48 10° W 02:11:22 15° SW 02:13:57 10° SSW visible
15 Oct - 17:54:27 10° SW 17:58:36 43° SE 18:02:47 10° ENE daylight
15 Oct - 19:35:45 10° W 19:40:02 50° NNW 19:44:22 10° ENE daylight
15 Oct - 21:18:06 10° WNW 21:22:08 33° N 21:26:12 10° ENE daylight
15 Oct - 22:59:50 10° WNW 23:04:12 53° NNE 23:08:38 10° E daylight
